Date String (YYYY-MM-DD hh:mm:ss) UTC,Instrument flags,absolute air pressure of the measurement (hPa),sample flow rate (lpm),inlet stack bypass flow (lpm),air temperature of the measurement (°C),ambient temperature measured by the external sensor (°C),aerosol sample conditioner tube jacket temperature (°C),OPC LED temperature (°C),internal box temperature (°C),relative humidity of the measurement (%),span deviation,mass concentration of particles derived from Lorenz-Mie calculation of OPC scattering (μg/m³),mass concentration of particles derived from Lorenz-Mie calculation of OPC scattering (μg/m³),mass concentration of particles derived from Lorenz-Mie calculation of OPC scattering (μg/m³)
DateTimeUTC,F1_M11,P_M11,Q1_M11,Q2_M11,T1_M11,T2_M11,T3_M11,T4_M11,T5_M11,U1_M11,ZSPAN_M11,X2_M11,X0_M11,X1_M11
2023-07-21 20:00:00,SystemResetWarning,0837.2,5.00,000.00,029.4,024.9,000.0,037.5,030.3,26.9,-000.5,0008.20,0011.48,0007.88
2023-07-21 20:01:00,SystemResetWarning,0837.2,5.01,000.00,029.3,025.2,000.0,037.6,030.3,26.5,-000.7,0008.16,0011.37,0007.85
2023-07-21 20:02:00,SystemResetWarning,0837.2,5.00,000.00,029.2,025.6,000.0,037.6,030.3,27.0,0000.1,0008.12,0011.37,0007.81
2023-07-21 20:03:00,SystemResetWarning,0837.2,5.00,000.00,029.2,026.1,000.0,037.6,030.4,26.3,0000.5,0008.10,0011.36,0007.80
2023-07-21 20:04:00,SystemResetWarning,0837.2,5.00,000.00,029.2,026.5,000.0,037.6,030.5,27.9,0000.6,0008.10,0011.39,0007.77
2023-07-21 20:05:00,SystemResetWarning,0837.2,5.00,000.00,029.2,026.9,000.0,037.6,030.6,27.4,0001.1,0008.08,0011.24,0007.74
2023-07-21 20:06:00,SystemResetWarning,0837.2,4.99,000.00,029.2,027.2,000.0,037.6,030.7,26.4,0001.3,0008.02,0010.96,0007.69
2023-07-21 20:07:00,SystemResetWarning,0837.2,4.99,000.00,029.3,027.4,000.0,037.6,030.7,25.9,0001.4,0007.98,0011.00,0007.67
2023-07-21 20:08:00,SystemResetWarning,0837.2,5.00,000.00,029.3,027.7,000.0,037.7,030.8,26.5,0001.1,0007.98,0011.14,0007.65
2023-07-21 20:09:00,SystemResetWarning,0837.2,5.00,000.00,029.3,027.8,000.0,037.7,030.9,27.7,0001.3,0007.96,0011.11,0007.64
2023-07-21 20:10:00,SystemResetWarning,0837.2,5.00,000.00,029.4,026.8,000.0,037.6,030.8,27.6,0001.1,0007.94,0011.07,0007.63
2023-07-21 20:11:00,SystemResetWarning,0837.2,5.00,000.00,029.3,025.3,000.0,037.4,030.5,28.0,0001.1,0007.92,0011.21,0007.61
2023-07-21 20:12:00,SystemResetWarning,0837.2,5.00,000.00,029.2,024.8,000.0,037.4,030.3,28.4,0001.4,0007.90,0011.46,0007.59
2023-07-21 20:13:00,SystemResetWarning,0837.1,5.01,000.00,029.1,025.0,000.0,037.4,030.2,27.7,0001.6,0007.89,0011.38,0007.61
2023-07-21 20:14:00,SystemResetWarning,0837.1,5.00,000.00,029.0,025.4,000.0,037.4,030.2,26.4,0001.6,0007.89,0011.19,0007.61
2023-07-21 20:15:00,SystemResetWarning,0837.1,5.00,000.00,029.0,025.9,000.0,037.4,030.3,26.8,0002.1,0007.89,0010.88,0007.63
2023-07-21 20:16:00,SystemResetWarning,0837.1,5.00,000.00,029.0,026.3,000.0,037.4,030.4,25.8,0002.0,0007.92,0010.91,0007.67
2023-07-21 20:17:00,SystemResetWarning,0837.1,5.00,000.00,029.0,026.7,000.0,037.5,030.5,23.6,0002.1,0007.94,0011.04,0007.70
2023-07-21 20:18:00,SystemResetWarning,0837.1,4.99,000.00,029.1,027.0,000.0,037.5,030.6,23.2,0002.1,0007.95,0010.93,0007.71
2023-07-21 20:19:00,SystemResetWarning,0837.1,4.99,000.00,029.1,027.3,000.0,037.5,030.6,24.1,0002.1,0007.96,0010.79,0007.73
2023-07-21 20:20:00,SystemResetWarning,0837.1,5.01,000.00,029.1,027.6,000.0,037.5,030.7,24.5,0002.1,0008.00,0010.84,0007.75
2023-07-21 20:21:00,SystemResetWarning,0837.1,4.99,000.00,029.2,027.8,000.0,037.5,030.8,25.5,0002.0,0008.03,0010.86,0007.77
2023-07-21 20:22:00,SystemResetWarning,0837.1,4.99,000.00,029.2,027.8,000.0,037.5,030.8,26.2,0001.9,0008.01,0010.59,0007.78
2023-07-21 20:23:00,SystemResetWarning,0837.1,5.00,000.00,029.2,026.4,000.0,037.4,030.7,24.7,0002.1,0008.02,0010.74,0007.80
2023-07-21 20:24:00,SystemResetWarning,0836.9,5.00,000.00,029.1,025.0,000.0,037.3,030.4,24.3,0002.3,0008.02,0010.86,0007.80
2023-07-21 20:25:00,SystemResetWarning,0836.9,5.01,000.00,029.0,024.7,000.0,037.2,030.2,26.2,0002.2,0008.03,0010.96,0007.79
2023-07-21 20:26:00,SystemResetWarning,0836.9,5.02,000.00,028.9,025.0,000.0,037.3,030.1,27.8,0001.8,0008.00,0010.89,0007.78
2023-07-21 20:27:00,SystemResetWarning,0836.9,4.99,000.00,028.9,025.5,000.0,037.3,030.2,28.6,0001.6,0008.01,0010.89,0007.77
2023-07-21 20:28:00,SystemResetWarning,0837.0,5.00,000.00,028.9,025.9,000.0,037.3,030.3,27.4,0001.4,0008.03,0010.87,0007.75
2023-07-21 20:29:00,SystemResetWarning,0836.9,5.00,000.00,028.9,026.4,000.0,037.3,030.4,26.7,0001.1,0008.02,0011.03,0007.74
2023-07-21 20:30:00,SystemResetWarning,0837.0,5.01,000.00,028.9,026.8,000.0,037.3,030.4,26.9,0000.7,0007.99,0011.21,0007.70
2023-07-21 20:31:00,SystemResetWarning,0836.9,4.99,000.00,029.0,027.1,000.0,037.4,030.5,27.9,0000.6,0007.97,0011.38,0007.68
2023-07-21 20:32:00,SystemResetWarning,0837.0,5.00,000.00,029.0,027.4,000.0,037.4,030.6,27.9,0000.9,0007.94,0011.32,0007.66
2023-07-21 20:33:00,SystemResetWarning,0837.0,5.01,000.00,029.0,027.6,000.0,037.4,030.7,26.6,0001.3,0007.93,0011.34,0007.63
2023-07-21 20:34:00,SystemResetWarning,0836.9,5.01,000.00,029.1,027.8,000.0,037.4,030.8,25.4,0000.7,0007.91,0010.89,0007.60
2023-07-21 20:35:00,SystemResetWarning,0837.0,5.00,000.00,029.1,027.7,000.0,037.4,030.8,25.8,-000.2,0007.86,0010.82,0007.56
2023-07-21 20:36:00,SystemResetWarning,0836.9,4.98,000.00,029.1,026.1,000.0,037.3,030.6,27.3,-000.3,0007.83,0011.17,0007.53
2023-07-21 20:37:00,SystemResetWarning,0836.9,5.01,000.00,029.0,025.0,000.0,037.2,030.3,27.0,-000.1,0007.82,0011.64,0007.50
2023-07-21 20:38:00,SystemResetWarning,0837.0,5.01,000.00,028.9,024.8,000.0,037.2,030.1,27.6,-000.1,0007.79,0011.63,0007.49
2023-07-21 20:39:00,SystemResetWarning,0837.0,5.00,000.00,028.8,025.2,000.0,037.2,030.1,28.4,-000.5,0007.78,0011.64,0007.50
2023-07-21 20:40:00,SystemResetWarning,0836.9,4.99,000.00,028.8,025.6,000.0,037.2,030.2,28.6,0000.4,0007.79,0011.86,0007.52
2023-07-21 20:41:00,SystemResetWarning,0837.0,5.00,000.00,028.8,026.1,000.0,037.2,030.3,29.5,0000.8,0007.81,0011.86,0007.53
2023-07-21 20:42:00,SystemResetWarning,0836.9,5.01,000.00,028.8,026.5,000.0,037.3,030.4,29.5,0000.9,0007.79,0011.67,0007.52
2023-07-21 20:43:00,SystemResetWarning,0836.9,5.00,000.00,028.9,026.9,000.0,037.3,030.5,29.2,0001.0,0007.80,0011.71,0007.51
2023-07-21 20:44:00,SystemResetWarning,0837.0,5.00,000.00,028.9,027.2,000.0,037.3,030.5,29.0,0000.9,0007.81,0011.83,0007.51
2023-07-21 20:45:00,SystemResetWarning,0836.9,5.01,000.00,029.0,027.5,000.0,037.3,030.6,29.6,0000.6,0007.80,0011.81,0007.50
2023-07-21 20:46:00,SystemResetWarning,0836.9,5.00,000.00,029.0,027.7,000.0,037.3,030.7,27.7,0000.4,0007.80,0011.81,0007.49
2023-07-21 20:47:00,SystemResetWarning,0836.9,5.00,000.00,029.0,027.8,000.0,037.4,030.8,28.9,0000.2,0007.77,0011.76,0007.48
2023-07-21 20:48:00,SystemResetWarning,0837.0,4.98,000.00,029.1,026.6,000.0,037.3,030.6,30.2,0000.3,0007.75,0011.30,0007.45
2023-07-21 20:49:00,SystemResetWarning,0836.9,5.01,000.00,029.0,025.1,000.0,037.1,030.3,29.8,0000.4,0007.71,0010.94,0007.43
2023-07-21 20:50:00,SystemResetWarning,0837.0,5.00,000.00,028.9,024.8,000.0,037.1,030.2,30.9,0000.3,0007.70,0011.96,0007.41
2023-07-21 20:51:00,SystemResetWarning,0837.0,5.02,000.00,028.8,025.1,000.0,037.1,030.1,29.6,0001.0,0007.66,0012.23,0007.36
2023-07-21 20:52:00,SystemResetWarning,0837.0,4.99,000.00,028.8,025.5,000.0,037.2,030.1,30.5,0001.0,0007.62,0011.85,0007.33
2023-07-21 20:53:00,SystemResetWarning,0837.0,5.00,000.00,028.8,026.0,000.0,037.2,030.2,29.8,0001.4,0007.59,0011.73,0007.30
2023-07-21 20:54:00,SystemResetWarning,0837.0,5.00,000.00,028.8,026.4,000.0,037.2,030.3,32.1,0001.0,0007.57,0011.71,0007.29
2023-07-21 20:55:00,SystemResetWarning,0837.0,5.01,000.00,028.8,026.8,000.0,037.2,030.4,30.7,0000.9,0007.55,0011.77,0007.28
2023-07-21 20:56:00,SystemResetWarning,0836.9,4.99,000.00,028.9,027.1,000.0,037.2,030.5,31.1,0000.5,0007.54,0011.77,0007.27
2023-07-21 20:57:00,SystemResetWarning,0837.0,5.00,000.00,028.9,027.4,000.0,037.3,030.6,26.2,0000.8,0007.57,0011.92,0007.27
2023-07-21 20:58:00,SystemResetWarning,0836.9,5.00,000.00,028.9,027.7,000.0,037.3,030.7,25.2,0001.1,0007.53,0011.91,0007.24
2023-07-21 20:59:00,SystemResetWarning,0836.9,5.00,000.00,029.0,027.9,000.0,037.3,030.7,24.7,0001.4,0007.51,0012.56,0007.21
